Home   Weather   Skien   Past weeks

Flag for Norway Past Weather in Skien, Norway — Yesterday and Last 2 Weeks

Now
27 °F

Chilly.


Feels Like: 23 °F
Forecast: 24 / 35 °F
Wind: 3 mph from North

Location: Torp

Current Time: Jan 24, 2017 at 3:59:11 am

Latest Report: Jan 24, 2017 at 3:20 am


Visibility: N/A

Pressure: 30.09 "Hg

Humidity: 100%

Dew Point: 27 °F

Location of SkienLocation

Past Weather in Skien — Graph

°F

Skien Temperature Yesterday

Maximum temperature yesterday: 39 °F (at 1:50 pm)
Minimum temperature yesterday: 23 °F (at 4:20 am)
Average temperature yesterday: 31 °F

High & Low Weather Summary for the Past Weeks

 TemperatureHumidityPressure
High50 °F (Jan 20, 8:20 pm)100% (Jan 9, 4:20 am)30.45 "Hg (Jan 9, 4:20 am)
Low18 °F (Jan 16, 12:50 am)44% (Jan 15, 1:20 pm)28.50 "Hg (Jan 11, 1:50 pm)
Average34 °F84%29.86 "Hg
* Reported Jan 9 2:20 am — Jan 24 2:20 am, Skien, Weather by CustomWeather, © 2017

Note: Actual official high and low records may vary slightly from our data, if they occured in-between our weather recording intervals... More about our weather records

Advertising

Skien Weather History for the Previous 24 Hours

Scroll right to see more
 ConditionsComfort  
Time TempWeatherWind HumidityBarometerVisibility
2:20 am
Tue, Jan 24
27 °FChilly.2 mph100%30.09 "HgN/A
1:20 am25 °FCold.3 mph100%30.09 "HgN/A
12:50 am25 °FCold.2 mph100%30.09 "HgN/A
12:20 am27 °FChilly.3 mph100%30.09 "HgN/A
11:50 pm
Mon, Jan 23
27 °FChilly.3 mph100%30.09 "HgN/A
11:20 pm27 °FChilly.3 mph100%30.07 "HgN/A
10:50 pm28 °FClear.3 mph100%30.07 "Hg10 mi
10:20 pm28 °FClear.No wind100%30.07 "Hg10 mi
9:50 pm28 °FClear.2 mph100%30.07 "Hg10 mi
9:20 pm32 °FClear.2 mph93%30.07 "Hg10 mi
8:50 pm32 °FClear.3 mph80%30.04 "Hg10 mi
8:20 pm34 °FClear.2 mph81%30.04 "Hg10 mi
7:50 pm36 °FClear.3 mph75%30.04 "Hg10 mi
7:20 pm34 °FClear.6 mph81%30.04 "Hg10 mi
6:50 pm36 °FPassing clouds.5 mph75%30.01 "HgN/A
6:20 pm36 °FClear.8 mph75%30.01 "Hg10 mi
5:50 pm37 °FClear.8 mph70%30.01 "Hg10 mi
5:20 pm37 °FClear.6 mph70%30.01 "Hg10 mi
4:50 pm37 °FClear.6 mph75%30.01 "Hg10 mi
4:20 pm37 °FClear.8 mph75%30.01 "Hg10 mi
3:50 pm39 °FSunny.8 mph70%30.01 "Hg10 mi
3:20 pm39 °FSunny.9 mph70%30.01 "Hg10 mi
2:50 pm39 °FSunny.8 mph75%30.01 "Hg10 mi
2:20 pm39 °FSunny.10 mph70%30.01 "Hg10 mi
1:50 pm39 °FSunny.9 mph75%30.01 "Hg10 mi
1:20 pm37 °FSunny.2 mph87%30.01 "Hg10 mi
12:50 pm36 °FPassing clouds.5 mph93%30.01 "HgN/A
12:20 pm34 °FSunny.3 mph100%30.01 "Hg10 mi
11:50 am34 °FPassing clouds.5 mph93%30.01 "HgN/A
11:20 am32 °FSunny.6 mph100%30.04 "Hg10 mi
10:50 am32 °FPassing clouds.3 mph93%30.04 "HgN/A
10:20 am30 °FSunny.7 mph100%30.04 "Hg10 mi
9:50 am28 °FPassing clouds.5 mph100%30.04 "HgN/A
9:20 am28 °FPassing clouds.7 mph100%30.04 "HgN/A
8:50 am27 °FPassing clouds.3 mph100%30.04 "HgN/A
8:20 am27 °FPassing clouds.7 mph100%30.04 "HgN/A
7:50 am27 °FPassing clouds.3 mph100%30.04 "HgN/A
7:20 am27 °FIce fog.3 mph100%30.04 "Hg6 mi
6:50 am25 °FIce fog.3 mph100%30.04 "Hg6 mi
6:20 am25 °FIce fog.No wind100%30.04 "Hg6 mi
5:50 am23 °FIce fog.3 mph100%30.07 "Hg6 mi
5:20 am23 °FIce fog.No wind100%30.04 "Hg6 mi
4:50 am25 °FPassing clouds.3 mph100%30.04 "Hg0 mi
4:20 am23 °FMostly cloudy.1 mph100%30.04 "Hg0 mi
3:50 am25 °FIce fog.2 mph100%30.07 "Hg1 mi
3:20 am25 °FIce fog.3 mph100%30.07 "Hg0 mi
Weather by CustomWeather, © 2017

See weather overviewHow to use our weather pages